Цвизель

Германия     49°01′08″N   13°13′53″E
темп.,
°C
ветер,
м/с
пор.,
м/с
влажн.,
%
обл.,
%
осадки,
мм/ч
давл.,
гПа
погр.,
м
26 октября, вт
вт2623:00+6ю1173100 0.0 102210
02:00+5ю0075100 0.0 102210
05:00+4ю117739 0.0 102310
08:00+2ююв11885 0.0 102410
11:00+8юз126599 0.0 1024292
14:00+8зюз247691 0.0 1024559
17:00+7юз118850 0.0 1025156
20:00+6ю119256 0.0 102616
27 октября, ср
ср2723:00+4ююв119762 0.0 102710
02:00+4ююв1197100 0.0 102710
05:00+3юв119898 0.0 102810
08:00+3юв119651 0.0 102810
11:00+9ю11798 0.0 1027325
14:00+12ююз115893 0.0 1025633
17:00+10ю117361 0.0 102410
20:00+6св218497 0.0 102611
28 октября, чт
чт2823:00+6всв117739 0.0 102610
02:00+6всв116420 0.0 102410
05:00+5св11585 0.0 102310
08:00+4всв11605 0.0 102410
11:00+11ю11485 0.0 1022243
14:00+13ю22475 0.0 1020544
17:00+10ююз11725 0.0 101911
20:00+6в11828 0.0 102110
29 октября, пт
пт2923:00+5вюв117332 0.0 102010
02:00+5в117350 0.0 101910
05:00+5в11735 0.0 101810
08:00+5всв11735 0.0 101810
11:00+12ю11545 0.0 1016241
14:00+14ююз22490 0.0 1014534
17:00+10юз11710 0.0 101410
20:00+6вюв11800 0.0 101610
30 октября, сб
сб3023:00+6вюв11700 0.0 101711
02:00+5вюв227042 0.0 101812
05:00+6вюв2270100 0.0 101714
08:00+6вюв1167100 0.0 101710
11:00+12ююз0056100 0.0 1016135
14:00+15ююв1249100 0.0 1015538
17:00+11ссз0073100 0.0 101510
20:00+9всв1175100 0.0 101510